Year,Month,Day,Hour,Minute,Value (Times are PST for windspeed in km/hr)
2010,04,26,00,00,0.30
2010,04,26,00,01,0.30
2010,04,26,00,02,0.50
2010,04,26,00,03,1.50
2010,04,26,00,04,0.80
2010,04,26,00,05,0.00
2010,04,26,00,06,0.10
2010,04,26,00,07,0.20
2010,04,26,00,08,0.90
2010,04,26,00,09,0.20
2010,04,26,00,10,0.30
2010,04,26,00,11,0.20
2010,04,26,00,12,3.00
2010,04,26,00,13,3.00
2010,04,26,00,14,2.20
2010,04,26,00,15,5.60
2010,04,26,00,16,3.60
2010,04,26,00,17,4.00
2010,04,26,00,18,4.60
2010,04,26,00,19,3.60
2010,04,26,00,20,0.40
2010,04,26,00,21,2.10
2010,04,26,00,22,1.10
2010,04,26,00,23,0.70
2010,04,26,00,24,0.60
2010,04,26,00,25,2.60
2010,04,26,00,26,9.20
2010,04,26,00,27,5.40
2010,04,26,00,28,6.80
2010,04,26,00,29,6.80
2010,04,26,00,30,7.40
2010,04,26,00,31,7.90
2010,04,26,00,32,7.30
2010,04,26,00,33,5.50
2010,04,26,00,34,5.90
2010,04,26,00,35,10.80
2010,04,26,00,36,12.60
2010,04,26,00,37,7.10
2010,04,26,00,38,5.60
2010,04,26,00,39,1.10
2010,04,26,00,40,0.00
2010,04,26,00,41,0.10
2010,04,26,00,42,0.10
2010,04,26,00,43,3.30
2010,04,26,00,44,0.40
2010,04,26,00,45,0.80
2010,04,26,00,46,0.10
2010,04,26,00,47,2.50
2010,04,26,00,48,1.00
2010,04,26,00,49,1.00
2010,04,26,00,50,0.50
2010,04,26,00,51,2.80
2010,04,26,00,52,5.30
2010,04,26,00,53,2.50
2010,04,26,00,54,1.40
2010,04,26,00,55,4.70
2010,04,26,00,56,6.10
2010,04,26,00,57,4.20
2010,04,26,00,58,0.10
2010,04,26,00,59,0.90
2010,04,26,01,00,1.00
2010,04,26,01,01,1.80
2010,04,26,01,02,0.50
2010,04,26,01,03,0.10
2010,04,26,01,04,1.60
2010,04,26,01,05,0.80
2010,04,26,01,06,0.20
2010,04,26,01,07,0.30
2010,04,26,01,08,2.50
2010,04,26,01,09,0.70
2010,04,26,01,10,0.40
2010,04,26,01,11,0.90
2010,04,26,01,12,0.50
2010,04,26,01,13,0.50
2010,04,26,01,14,0.30
2010,04,26,01,15,0.00
2010,04,26,01,16,0.30
2010,04,26,01,17,1.40
2010,04,26,01,18,4.00
2010,04,26,01,19,4.70
2010,04,26,01,20,5.30
2010,04,26,01,21,2.50
2010,04,26,01,22,0.60
2010,04,26,01,23,4.10
2010,04,26,01,24,4.50
2010,04,26,01,25,2.80
2010,04,26,01,26,2.60
2010,04,26,01,27,1.60
2010,04,26,01,28,0.20
2010,04,26,01,29,3.00
2010,04,26,01,30,0.20
2010,04,26,01,31,2.10
2010,04,26,01,32,3.00
2010,04,26,01,33,1.40
2010,04,26,01,34,1.10
2010,04,26,01,35,2.90
2010,04,26,01,36,3.80
2010,04,26,01,37,2.30
2010,04,26,01,38,0.40
2010,04,26,01,39,0.60
2010,04,26,01,40,0.00
2010,04,26,01,41,0.60
2010,04,26,01,42,0.70
2010,04,26,01,43,0.10
2010,04,26,01,44,0.00
2010,04,26,01,45,0.00
2010,04,26,01,46,0.00
2010,04,26,01,47,0.00
2010,04,26,01,48,0.00
2010,04,26,01,49,0.00
2010,04,26,01,50,1.80
2010,04,26,01,51,2.70
2010,04,26,01,52,2.10
2010,04,26,01,53,0.30
2010,04,26,01,54,0.30
2010,04,26,01,55,0.40
2010,04,26,01,56,1.30
2010,04,26,01,57,0.90
2010,04,26,01,58,4.70
2010,04,26,01,59,3.90
2010,04,26,02,00,0.30
2010,04,26,02,01,1.20
2010,04,26,02,02,2.20
2010,04,26,02,03,1.40
2010,04,26,02,04,1.40
2010,04,26,02,05,0.00
2010,04,26,02,06,0.10
2010,04,26,02,07,1.40
2010,04,26,02,08,1.00
2010,04,26,02,09,0.00
2010,04,26,02,10,0.10
2010,04,26,02,11,0.00
2010,04,26,02,12,0.30
2010,04,26,02,13,0.10
2010,04,26,02,14,0.10
2010,04,26,02,15,0.00
2010,04,26,02,16,0.00
2010,04,26,02,17,1.10
2010,04,26,02,18,0.30
2010,04,26,02,19,1.50
2010,04,26,02,20,1.10
2010,04,26,02,21,0.10
2010,04,26,02,22,0.50
2010,04,26,02,23,1.40
2010,04,26,02,24,0.00
2010,04,26,02,25,0.20
2010,04,26,02,26,0.30
2010,04,26,02,27,0.10
2010,04,26,02,28,0.00
2010,04,26,02,29,2.40
2010,04,26,02,30,4.70
2010,04,26,02,31,2.60
2010,04,26,02,32,3.80
2010,04,26,02,33,1.00
2010,04,26,02,34,2.20
2010,04,26,02,35,2.20
2010,04,26,02,36,3.70
2010,04,26,02,37,2.30
2010,04,26,02,38,1.00
2010,04,26,02,39,2.50
2010,04,26,02,40,0.90
2010,04,26,02,41,1.70
2010,04,26,02,42,1.50
2010,04,26,02,43,3.90
2010,04,26,02,44,1.40
2010,04,26,02,45,1.90
2010,04,26,02,46,1.10
2010,04,26,02,47,1.80
2010,04,26,02,48,0.00
2010,04,26,02,49,0.30
2010,04,26,02,50,0.50
2010,04,26,02,51,0.10
2010,04,26,02,52,1.40
2010,04,26,02,53,8.10
2010,04,26,02,54,3.40
2010,04,26,02,55,0.10
2010,04,26,02,56,0.10
2010,04,26,02,57,2.40
2010,04,26,02,58,1.00
2010,04,26,02,59,2.90
2010,04,26,03,00,3.40
2010,04,26,03,01,5.70
2010,04,26,03,02,2.70
2010,04,26,03,03,3.30
2010,04,26,03,04,3.10
2010,04,26,03,05,3.70
2010,04,26,03,06,10.10
2010,04,26,03,07,1.90
2010,04,26,03,08,3.10
2010,04,26,03,09,1.90
2010,04,26,03,10,5.20
2010,04,26,03,11,5.40
2010,04,26,03,12,10.20
2010,04,26,03,13,6.40
2010,04,26,03,14,7.20
2010,04,26,03,15,8.30
2010,04,26,03,16,4.10
2010,04,26,03,17,2.90
2010,04,26,03,18,0.90
2010,04,26,03,19,0.90
2010,04,26,03,20,0.70
2010,04,26,03,21,0.00
2010,04,26,03,22,0.30
2010,04,26,03,23,7.80
2010,04,26,03,24,4.40
2010,04,26,03,25,3.00
2010,04,26,03,26,4.10
2010,04,26,03,27,3.10
2010,04,26,03,28,1.40
2010,04,26,03,29,4.30
2010,04,26,03,30,3.70
2010,04,26,03,31,1.30
2010,04,26,03,32,0.00
2010,04,26,03,33,0.50
2010,04,26,03,34,1.70
2010,04,26,03,35,0.40
2010,04,26,03,36,1.30
2010,04,26,03,37,1.00
2010,04,26,03,38,1.50
2010,04,26,03,39,4.20
2010,04,26,03,40,7.70
2010,04,26,03,41,3.50
2010,04,26,03,42,2.50
2010,04,26,03,43,2.60
2010,04,26,03,44,0.00
2010,04,26,03,45,3.60
2010,04,26,03,46,4.20
2010,04,26,03,47,0.90
2010,04,26,03,48,0.10
2010,04,26,03,49,0.00
2010,04,26,03,50,0.00
2010,04,26,03,51,0.20
2010,04,26,03,52,1.70
2010,04,26,03,53,1.10
2010,04,26,03,54,1.70
2010,04,26,03,55,0.70
2010,04,26,03,56,0.20
2010,04,26,03,57,0.10
2010,04,26,03,58,0.70
2010,04,26,03,59,0.00
2010,04,26,04,00,0.00
2010,04,26,04,01,0.10
2010,04,26,04,02,0.40
2010,04,26,04,03,1.40
2010,04,26,04,04,0.20
2010,04,26,04,05,0.60
2010,04,26,04,06,1.40
2010,04,26,04,07,0.00
2010,04,26,04,08,0.10
2010,04,26,04,09,1.00
2010,04,26,04,10,0.50
2010,04,26,04,11,0.80
2010,04,26,04,12,1.20
2010,04,26,04,13,1.20
2010,04,26,04,14,2.20
2010,04,26,04,15,1.00
2010,04,26,04,16,0.50
2010,04,26,04,17,3.00
2010,04,26,04,18,2.10
2010,04,26,04,19,1.40
2010,04,26,04,20,3.90
2010,04,26,04,21,3.90
2010,04,26,04,22,4.80
2010,04,26,04,23,3.00
2010,04,26,04,24,2.20
2010,04,26,04,25,0.00
2010,04,26,04,26,0.30
2010,04,26,04,27,0.00
2010,04,26,04,28,0.10
2010,04,26,04,29,0.20
2010,04,26,04,30,0.00
2010,04,26,04,31,0.20
2010,04,26,04,32,1.80
2010,04,26,04,33,0.60
2010,04,26,04,34,0.10
2010,04,26,04,35,0.30
2010,04,26,04,36,0.10
2010,04,26,04,37,0.90
2010,04,26,04,38,1.20
2010,04,26,04,39,1.00
2010,04,26,04,40,1.50
2010,04,26,04,41,0.60
2010,04,26,04,42,2.40
2010,04,26,04,43,2.40
2010,04,26,04,44,3.90
2010,04,26,04,45,1.50
2010,04,26,04,46,2.60
2010,04,26,04,47,5.80
2010,04,26,04,48,1.50
2010,04,26,04,49,0.20
2010,04,26,04,50,1.90
2010,04,26,04,51,3.60
2010,04,26,04,52,1.90
2010,04,26,04,53,0.00
2010,04,26,04,54,0.80
2010,04,26,04,55,0.80
2010,04,26,04,56,2.20
2010,04,26,04,57,3.40
2010,04,26,04,58,1.40
2010,04,26,04,59,0.00
2010,04,26,05,00,0.20
2010,04,26,05,01,0.10
2010,04,26,05,02,2.90
2010,04,26,05,03,1.50
2010,04,26,05,04,1.20
2010,04,26,05,05,0.60
2010,04,26,05,06,3.70
2010,04,26,05,07,4.30
2010,04,26,05,08,2.60
2010,04,26,05,09,1.40
2010,04,26,05,10,4.90
2010,04,26,05,11,5.70
2010,04,26,05,12,5.30
2010,04,26,05,13,4.30
2010,04,26,05,14,6.30
2010,04,26,05,15,4.10
2010,04,26,05,16,4.90
2010,04,26,05,17,5.60
2010,04,26,05,18,2.10
2010,04,26,05,19,3.00
2010,04,26,05,20,2.80
2010,04,26,05,21,3.70
2010,04,26,05,22,6.30
2010,04,26,05,23,7.50
2010,04,26,05,24,2.80
2010,04,26,05,25,1.50
2010,04,26,05,26,6.00
2010,04,26,05,27,10.90
2010,04,26,05,28,10.00
2010,04,26,05,29,2.70
2010,04,26,05,30,4.40
2010,04,26,05,31,7.20
2010,04,26,05,32,2.20
2010,04,26,05,33,0.70
2010,04,26,05,34,5.20
2010,04,26,05,35,0.80
2010,04,26,05,36,0.60
2010,04,26,05,37,0.60
2010,04,26,05,38,3.60
2010,04,26,05,39,0.20
2010,04,26,05,40,0.10
2010,04,26,05,41,0.00
2010,04,26,05,42,0.10
2010,04,26,05,43,2.40
2010,04,26,05,44,2.10
2010,04,26,05,45,1.20
2010,04,26,05,46,1.90
2010,04,26,05,47,0.90
2010,04,26,05,48,2.80
2010,04,26,05,49,1.40
2010,04,26,05,50,0.20
2010,04,26,05,51,1.30
2010,04,26,05,52,0.00
2010,04,26,05,53,0.80
2010,04,26,05,54,0.90
2010,04,26,05,55,0.10
2010,04,26,05,56,0.10
2010,04,26,05,57,0.10
2010,04,26,05,58,2.50
2010,04,26,05,59,2.50
2010,04,26,06,00,3.20
2010,04,26,06,01,2.50
2010,04,26,06,02,3.30
2010,04,26,06,03,5.10
2010,04,26,06,04,6.10
2010,04,26,06,05,6.40
2010,04,26,06,06,7.70
2010,04,26,06,07,5.20
2010,04,26,06,08,3.00
2010,04,26,06,09,4.80
2010,04,26,06,10,8.10
2010,04,26,06,11,8.80
2010,04,26,06,12,5.70
2010,04,26,06,13,10.10
2010,04,26,06,14,5.80
2010,04,26,06,15,1.40
2010,04,26,06,16,2.50
2010,04,26,06,17,6.00
2010,04,26,06,18,5.60
2010,04,26,06,19,6.30
2010,04,26,06,20,6.00
2010,04,26,06,21,8.40
2010,04,26,06,22,9.70
2010,04,26,06,23,5.30
2010,04,26,06,24,4.80
2010,04,26,06,25,7.90
2010,04,26,06,26,4.80
2010,04,26,06,27,5.20
2010,04,26,06,28,5.80
2010,04,26,06,29,6.40
2010,04,26,06,30,2.90
2010,04,26,06,31,0.60
2010,04,26,06,32,1.30
2010,04,26,06,33,0.40
2010,04,26,06,34,2.50
2010,04,26,06,35,0.20
2010,04,26,06,36,0.60
2010,04,26,06,37,0.40
2010,04,26,06,38,0.80
2010,04,26,06,39,0.10
2010,04,26,06,40,0.80
2010,04,26,06,41,0.60
2010,04,26,06,42,1.40
2010,04,26,06,43,0.30
2010,04,26,06,44,1.20
2010,04,26,06,45,2.00
2010,04,26,06,46,2.20
2010,04,26,06,47,3.70
2010,04,26,06,48,1.40
2010,04,26,06,49,4.00
2010,04,26,06,50,1.40
2010,04,26,06,51,0.90
2010,04,26,06,52,0.10
2010,04,26,06,53,1.90
2010,04,26,06,54,0.60
2010,04,26,06,55,5.60
2010,04,26,06,56,2.90
2010,04,26,06,57,0.60
2010,04,26,06,58,0.00
2010,04,26,06,59,1.90
2010,04,26,07,00,6.40
2010,04,26,07,01,6.40
2010,04,26,07,02,6.90
2010,04,26,07,03,8.40
2010,04,26,07,04,4.40
2010,04,26,07,05,4.70
2010,04,26,07,06,3.10
2010,04,26,07,07,0.20
2010,04,26,07,08,0.40
2010,04,26,07,09,1.70
2010,04,26,07,10,3.10
2010,04,26,07,11,2.40
2010,04,26,07,12,2.10
2010,04,26,07,13,1.00
2010,04,26,07,14,0.40
2010,04,26,07,15,0.90
2010,04,26,07,16,2.20
2010,04,26,07,17,1.20
2010,04,26,07,18,0.50
2010,04,26,07,19,1.90
2010,04,26,07,20,4.00
2010,04,26,07,21,2.60
2010,04,26,07,22,6.40
2010,04,26,07,23,7.40
2010,04,26,07,24,0.70
2010,04,26,07,25,1.80
2010,04,26,07,26,0.70
2010,04,26,07,27,1.40
2010,04,26,07,28,2.50
2010,04,26,07,29,0.80
2010,04,26,07,30,5.10
2010,04,26,07,31,10.20
2010,04,26,07,32,7.50
2010,04,26,07,33,2.70
2010,04,26,07,34,8.00
2010,04,26,07,35,12.00
2010,04,26,07,36,12.50
2010,04,26,07,37,5.40
2010,04,26,07,38,5.40
2010,04,26,07,39,8.10
2010,04,26,07,40,3.70
2010,04,26,07,41,0.10
2010,04,26,07,42,0.00
2010,04,26,07,43,1.40
2010,04,26,07,44,2.70
2010,04,26,07,45,1.90
2010,04,26,07,46,1.30
2010,04,26,07,47,2.10
2010,04,26,07,48,5.70
2010,04,26,07,49,11.50
2010,04,26,07,50,5.30
2010,04,26,07,51,3.30
2010,04,26,07,52,4.30
2010,04,26,07,53,2.90
2010,04,26,07,54,5.20
2010,04,26,07,55,6.00
2010,04,26,07,56,3.60
2010,04,26,07,57,3.20
2010,04,26,07,58,1.80
2010,04,26,07,59,0.30
2010,04,26,08,00,0.70
2010,04,26,08,01,3.20
2010,04,26,08,02,4.40
2010,04,26,08,03,1.90
2010,04,26,08,04,1.00
2010,04,26,08,05,1.80
2010,04,26,08,06,6.50
2010,04,26,08,07,3.70
2010,04,26,08,08,4.20
2010,04,26,08,09,5.30
2010,04,26,08,10,1.40
2010,04,26,08,11,0.90
2010,04,26,08,12,0.20
2010,04,26,08,13,2.50
2010,04,26,08,14,3.20
2010,04,26,08,15,1.60
2010,04,26,08,16,0.90
2010,04,26,08,17,0.00
2010,04,26,08,18,3.40
2010,04,26,08,19,2.00
2010,04,26,08,20,0.90
2010,04,26,08,21,0.20
2010,04,26,08,22,1.40
2010,04,26,08,23,6.70
2010,04,26,08,24,1.80
2010,04,26,08,25,0.10
2010,04,26,08,26,0.70
2010,04,26,08,27,0.50
2010,04,26,08,28,0.20
2010,04,26,08,29,2.90
2010,04,26,08,30,1.00
2010,04,26,08,31,0.90
2010,04,26,08,32,2.40
2010,04,26,08,33,2.70
2010,04,26,08,34,1.90
2010,04,26,08,35,2.40
2010,04,26,08,36,1.10
2010,04,26,08,37,0.70
2010,04,26,08,38,0.20
2010,04,26,08,39,0.00
2010,04,26,08,40,0.60
2010,04,26,08,41,1.90
2010,04,26,08,42,0.00
2010,04,26,08,43,0.10
2010,04,26,08,44,1.30
2010,04,26,08,45,1.70
2010,04,26,08,46,0.20
2010,04,26,08,47,0.10
2010,04,26,08,48,0.50
2010,04,26,08,49,2.60
2010,04,26,08,50,3.80
2010,04,26,08,51,0.80
2010,04,26,08,52,0.90
2010,04,26,08,53,2.00
2010,04,26,08,54,4.00
2010,04,26,08,55,1.20
2010,04,26,08,56,0.30
2010,04,26,08,57,0.70
2010,04,26,08,58,0.30
2010,04,26,08,59,0.80
2010,04,26,09,00,1.30
2010,04,26,09,01,0.50
2010,04,26,09,02,2.30
2010,04,26,09,03,3.20
2010,04,26,09,04,2.10
2010,04,26,09,05,4.80
2010,04,26,09,06,5.20
2010,04,26,09,07,3.40
2010,04,26,09,08,3.20
2010,04,26,09,09,4.10
2010,04,26,09,10,2.50
2010,04,26,09,11,0.40
2010,04,26,09,12,0.20
2010,04,26,09,13,2.30
2010,04,26,09,14,3.20
2010,04,26,09,15,5.00
2010,04,26,09,16,5.00
2010,04,26,09,17,2.20
2010,04,26,09,18,3.00
2010,04,26,09,19,0.70
2010,04,26,09,20,2.90
2010,04,26,09,21,0.80
2010,04,26,09,22,1.90
2010,04,26,09,23,4.20
2010,04,26,09,24,0.70
2010,04,26,09,25,0.50
2010,04,26,09,26,0.20
2010,04,26,09,27,0.80
2010,04,26,09,28,1.20
2010,04,26,09,29,1.20
2010,04,26,09,30,0.50
2010,04,26,09,31,0.60
2010,04,26,09,32,2.50
2010,04,26,09,33,0.10
2010,04,26,09,34,0.10
2010,04,26,09,35,0.30
2010,04,26,09,36,1.90
2010,04,26,09,37,2.60
2010,04,26,09,38,5.00
2010,04,26,09,39,2.30
2010,04,26,09,40,3.10
2010,04,26,09,41,5.90
2010,04,26,09,42,6.70
2010,04,26,09,43,7.80
2010,04,26,09,44,6.90
2010,04,26,09,45,7.20
2010,04,26,09,46,6.90
2010,04,26,09,47,8.70
2010,04,26,09,48,6.40
2010,04,26,09,49,4.40
2010,04,26,09,50,2.70
2010,04,26,09,51,4.10
2010,04,26,09,52,3.50
2010,04,26,09,53,1.40
2010,04,26,09,54,2.40
2010,04,26,09,55,3.00
2010,04,26,09,56,0.10
2010,04,26,09,57,2.90
2010,04,26,09,58,7.60
2010,04,26,09,59,3.10
2010,04,26,10,00,2.20
2010,04,26,10,01,5.00
2010,04,26,10,02,3.10
2010,04,26,10,03,1.30
2010,04,26,10,04,2.00
2010,04,26,10,05,1.40
2010,04,26,10,06,0.40
2010,04,26,10,07,1.40
2010,04,26,10,08,0.00
2010,04,26,10,09,0.10
2010,04,26,10,10,0.30
2010,04,26,10,11,1.90
2010,04,26,10,12,5.00
2010,04,26,10,13,4.10
2010,04,26,10,14,3.20
2010,04,26,10,15,3.40
2010,04,26,10,16,4.30
2010,04,26,10,17,1.80
2010,04,26,10,18,5.00
2010,04,26,10,19,8.20
2010,04,26,10,20,2.10
2010,04,26,10,21,2.60
2010,04,26,10,22,2.50
2010,04,26,10,23,5.30
2010,04,26,10,24,4.80
2010,04,26,10,25,8.90
2010,04,26,10,26,3.90
2010,04,26,10,27,0.70
2010,04,26,10,28,0.30
2010,04,26,10,29,1.60
2010,04,26,10,30,3.40
2010,04,26,10,31,1.90
2010,04,26,10,32,0.50
2010,04,26,10,33,0.90
2010,04,26,10,34,1.00
2010,04,26,10,35,0.20
2010,04,26,10,36,0.10
2010,04,26,10,37,2.60
2010,04,26,10,38,4.70
2010,04,26,10,39,0.60
2010,04,26,10,40,1.00
2010,04,26,10,41,0.60
2010,04,26,10,42,2.10
2010,04,26,10,43,2.00
2010,04,26,10,44,0.70
2010,04,26,10,45,0.20
2010,04,26,10,46,0.20
2010,04,26,10,47,1.40
2010,04,26,10,48,4.60
2010,04,26,10,49,7.80
2010,04,26,10,50,6.80
2010,04,26,10,51,5.30
2010,04,26,10,52,3.40
2010,04,26,10,53,3.10
2010,04,26,10,54,1.50
2010,04,26,10,55,3.20
2010,04,26,10,56,4.00
2010,04,26,10,57,4.10
2010,04,26,10,58,1.40
2010,04,26,10,59,0.70
2010,04,26,11,00,3.10
2010,04,26,11,01,1.90
2010,04,26,11,02,1.60
2010,04,26,11,03,1.60
2010,04,26,11,04,7.40
2010,04,26,11,05,1.10
2010,04,26,11,06,2.90
2010,04,26,11,07,7.40
2010,04,26,11,08,7.20
2010,04,26,11,09,6.00
2010,04,26,11,10,3.50
2010,04,26,11,11,4.30
2010,04,26,11,12,4.60
2010,04,26,11,13,5.70
2010,04,26,11,14,4.50
2010,04,26,11,15,5.60
2010,04,26,11,16,6.40
2010,04,26,11,17,3.90
2010,04,26,11,18,0.10
2010,04,26,11,19,0.20
2010,04,26,11,20,5.80
2010,04,26,11,21,1.20
2010,04,26,11,22,5.60
2010,04,26,11,23,5.50
2010,04,26,11,24,2.40
2010,04,26,11,25,0.10
2010,04,26,11,26,1.30
2010,04,26,11,27,3.80
2010,04,26,11,28,2.70
2010,04,26,11,29,0.50
2010,04,26,11,30,1.80
2010,04,26,11,31,3.30
2010,04,26,11,32,4.20
2010,04,26,11,33,8.30
2010,04,26,11,34,7.00
2010,04,26,11,35,4.70
2010,04,26,11,36,6.60
2010,04,26,11,37,5.90
2010,04,26,11,38,8.10
2010,04,26,11,39,6.40
2010,04,26,11,40,4.30
2010,04,26,11,41,1.30
2010,04,26,11,42,0.50
2010,04,26,11,43,2.40
2010,04,26,11,44,4.00
2010,04,26,11,45,0.30
2010,04,26,11,46,0.10
2010,04,26,11,47,0.20
2010,04,26,11,48,1.30
2010,04,26,11,49,1.40
2010,04,26,11,50,1.40
2010,04,26,11,51,2.50
2010,04,26,11,52,2.70
2010,04,26,11,53,1.90
2010,04,26,11,54,2.80
2010,04,26,11,55,1.00
2010,04,26,11,56,3.40
2010,04,26,11,57,2.00
2010,04,26,11,58,5.60
2010,04,26,11,59,1.00
2010,04,26,12,00,2.20
2010,04,26,12,01,5.10
2010,04,26,12,02,2.70
2010,04,26,12,03,0.50
2010,04,26,12,04,2.30
2010,04,26,12,05,0.60
2010,04,26,12,06,1.90
2010,04,26,12,07,2.60
2010,04,26,12,08,5.20
2010,04,26,12,09,4.70
2010,04,26,12,10,0.60
2010,04,26,12,11,2.90
2010,04,26,12,12,0.20
2010,04,26,12,13,0.10
2010,04,26,12,14,1.90
2010,04,26,12,15,1.40
2010,04,26,12,16,1.90
2010,04,26,12,17,0.80
2010,04,26,12,18,5.30
2010,04,26,12,19,3.50
2010,04,26,12,20,2.00
2010,04,26,12,21,0.80
2010,04,26,12,22,1.90
2010,04,26,12,23,0.90
2010,04,26,12,24,0.60
2010,04,26,12,25,2.00
2010,04,26,12,26,5.40
2010,04,26,12,27,4.00
2010,04,26,12,28,1.20
2010,04,26,12,29,1.90
2010,04,26,12,30,0.10
2010,04,26,12,31,0.70
2010,04,26,12,32,2.00
2010,04,26,12,33,7.20
2010,04,26,12,34,3.60
2010,04,26,12,35,2.80
2010,04,26,12,36,1.50
2010,04,26,12,37,1.80
2010,04,26,12,38,4.70
2010,04,26,12,39,1.80
2010,04,26,12,40,3.90
2010,04,26,12,41,3.00
2010,04,26,12,42,1.70
2010,04,26,12,43,3.10
2010,04,26,12,44,5.00
2010,04,26,12,45,5.20
2010,04,26,12,46,5.10
2010,04,26,12,47,2.70
2010,04,26,12,48,1.70
2010,04,26,12,49,0.60
2010,04,26,12,50,2.90
2010,04,26,12,51,2.50
2010,04,26,12,52,3.20
2010,04,26,12,53,3.00
2010,04,26,12,54,2.00
2010,04,26,12,55,5.90
2010,04,26,12,56,4.70
2010,04,26,12,57,2.50
2010,04,26,12,58,1.80
2010,04,26,12,59,1.90
2010,04,26,13,00,2.50
2010,04,26,13,01,0.00
2010,04,26,13,02,0.10
2010,04,26,13,03,0.20
2010,04,26,13,04,1.90
2010,04,26,13,05,3.00
2010,04,26,13,06,7.50
2010,04,26,13,07,3.80
2010,04,26,13,08,1.40
2010,04,26,13,09,0.90
2010,04,26,13,10,1.00
2010,04,26,13,11,0.10
2010,04,26,13,12,1.30
2010,04,26,13,13,5.80
2010,04,26,13,14,7.50
2010,04,26,13,15,6.00
2010,04,26,13,16,5.00
2010,04,26,13,17,9.70
2010,04,26,13,18,10.00
2010,04,26,13,19,11.30
2010,04,26,13,20,13.90
2010,04,26,13,21,9.00
2010,04,26,13,22,8.20
2010,04,26,13,23,8.40
2010,04,26,13,24,12.60
2010,04,26,13,25,12.40
2010,04,26,13,26,12.90
2010,04,26,13,27,12.00
2010,04,26,13,28,11.00
2010,04,26,13,29,17.20
2010,04,26,13,30,9.80
2010,04,26,13,31,10.10
2010,04,26,13,32,14.90
2010,04,26,13,33,12.30
2010,04,26,13,34,9.90
2010,04,26,13,35,15.00
2010,04,26,13,36,8.90
2010,04,26,13,37,16.80
2010,04,26,13,38,13.00
2010,04,26,13,39,9.70
2010,04,26,13,40,17.30
2010,04,26,13,41,10.90
2010,04,26,13,42,17.30
2010,04,26,13,43,13.00
2010,04,26,13,44,14.80
2010,04,26,13,45,11.30
2010,04,26,13,46,16.40
2010,04,26,13,47,14.80
2010,04,26,13,48,11.40
2010,04,26,13,49,12.70
2010,04,26,13,50,11.50
2010,04,26,13,51,18.00
2010,04,26,13,52,20.00
2010,04,26,13,53,8.70
2010,04,26,13,54,12.80
2010,04,26,13,55,12.90
2010,04,26,13,56,14.30
2010,04,26,13,57,15.80
2010,04,26,13,58,14.50
2010,04,26,13,59,14.80
2010,04,26,14,00,18.60
2010,04,26,14,01,12.30
2010,04,26,14,02,13.00
2010,04,26,14,03,12.50
2010,04,26,14,04,18.00
2010,04,26,14,05,13.90
2010,04,26,14,06,10.60
2010,04,26,14,07,7.50
2010,04,26,14,08,8.70
2010,04,26,14,09,1.40
2010,04,26,14,10,0.90
2010,04,26,14,11,0.20
2010,04,26,14,12,0.20
2010,04,26,14,13,0.00
2010,04,26,14,14,1.60
2010,04,26,14,15,5.70
2010,04,26,14,16,1.30
2010,04,26,14,17,0.10
2010,04,26,14,18,0.60
2010,04,26,14,19,0.90
2010,04,26,14,20,3.80
2010,04,26,14,21,6.80
2010,04,26,14,22,5.60
2010,04,26,14,23,1.40
2010,04,26,14,24,0.00
2010,04,26,14,25,4.00
2010,04,26,14,26,6.00
2010,04,26,14,27,1.40
2010,04,26,14,28,2.20
2010,04,26,14,29,3.90
2010,04,26,14,30,10.20
2010,04,26,14,31,7.20
2010,04,26,14,32,7.90
2010,04,26,14,33,3.40
2010,04,26,14,34,5.90
2010,04,26,14,35,6.00
2010,04,26,14,36,12.90
2010,04,26,14,37,9.80
2010,04,26,14,38,11.10
2010,04,26,14,39,15.90
2010,04,26,14,40,9.10
2010,04,26,14,41,14.20
2010,04,26,14,42,11.90
2010,04,26,14,43,11.60
2010,04,26,14,44,12.60
2010,04,26,14,45,19.30
2010,04,26,14,46,19.40
2010,04,26,14,47,12.60
2010,04,26,14,48,10.20
2010,04,26,14,49,15.50
2010,04,26,14,50,10.80
2010,04,26,14,51,14.50
2010,04,26,14,52,20.70
2010,04,26,14,53,18.60
2010,04,26,14,54,15.10
2010,04,26,14,55,16.20
2010,04,26,14,56,22.00
2010,04,26,14,57,16.30
2010,04,26,14,58,18.30
2010,04,26,14,59,18.30
2010,04,26,15,00,13.90
2010,04,26,15,01,17.30
2010,04,26,15,02,14.10
2010,04,26,15,03,16.70
2010,04,26,15,04,15.90
2010,04,26,15,05,25.80
2010,04,26,15,06,26.20
2010,04,26,15,07,16.80
2010,04,26,15,08,22.80
2010,04,26,15,09,29.60
2010,04,26,15,10,23.60
2010,04,26,15,11,27.90
2010,04,26,15,12,23.20
2010,04,26,15,13,22.40
2010,04,26,15,14,22.60
2010,04,26,15,15,22.40
2010,04,26,15,16,24.90
2010,04,26,15,17,24.00
2010,04,26,15,18,18.00
2010,04,26,15,19,18.40
2010,04,26,15,20,27.20
2010,04,26,15,21,27.10
2010,04,26,15,22,19.90
2010,04,26,15,23,14.20
2010,04,26,15,24,20.20
2010,04,26,15,25,18.50
2010,04,26,15,26,17.80
2010,04,26,15,27,24.20
2010,04,26,15,28,20.20
2010,04,26,15,29,18.60
2010,04,26,15,30,20.30
2010,04,26,15,31,18.80
2010,04,26,15,32,20.80
2010,04,26,15,33,25.40
2010,04,26,15,34,16.10
2010,04,26,15,35,21.30
2010,04,26,15,36,24.50
2010,04,26,15,37,26.70
2010,04,26,15,38,23.80
2010,04,26,15,39,24.50
2010,04,26,15,40,21.90
2010,04,26,15,41,17.20
2010,04,26,15,42,26.10
2010,04,26,15,43,23.00
2010,04,26,15,44,25.70
2010,04,26,15,45,21.80
2010,04,26,15,46,24.00
2010,04,26,15,47,20.40
2010,04,26,15,48,17.00
2010,04,26,15,49,22.20
2010,04,26,15,50,34.00
2010,04,26,15,51,31.20
2010,04,26,15,52,25.40
2010,04,26,15,53,24.70
2010,04,26,15,54,23.40
2010,04,26,15,55,19.50
2010,04,26,15,56,19.20
2010,04,26,15,57,27.80
2010,04,26,15,58,29.50
2010,04,26,15,59,24.60
2010,04,26,16,00,24.80
2010,04,26,16,01,19.10
2010,04,26,16,02,25.30
2010,04,26,16,03,39.70
2010,04,26,16,04,26.20
2010,04,26,16,05,20.00
2010,04,26,16,06,19.10
2010,04,26,16,07,23.60
2010,04,26,16,08,22.70
2010,04,26,16,09,26.90
2010,04,26,16,10,23.70
2010,04,26,16,11,20.40
2010,04,26,16,12,21.90
2010,04,26,16,13,16.90
2010,04,26,16,14,25.30
2010,04,26,16,15,30.10
2010,04,26,16,16,18.80
2010,04,26,16,17,37.90
2010,04,26,16,18,22.10
2010,04,26,16,19,17.90
2010,04,26,16,20,27.00
2010,04,26,16,21,27.20
2010,04,26,16,22,26.10
2010,04,26,16,23,22.30
2010,04,26,16,24,17.70
2010,04,26,16,25,19.30
2010,04,26,16,26,21.40
2010,04,26,16,27,37.40
2010,04,26,16,28,24.60
2010,04,26,16,29,37.30
2010,04,26,16,30,26.20
2010,04,26,16,31,35.80
2010,04,26,16,32,38.40
2010,04,26,16,33,33.10
2010,04,26,16,34,27.90
2010,04,26,16,35,23.70
2010,04,26,16,36,29.30
2010,04,26,16,37,29.80
2010,04,26,16,38,32.70
2010,04,26,16,39,21.10
2010,04,26,16,40,31.00
2010,04,26,16,41,43.20
2010,04,26,16,42,34.20
2010,04,26,16,43,35.00
2010,04,26,16,44,28.80
2010,04,26,16,45,37.10
2010,04,26,16,46,42.20
2010,04,26,16,47,22.00
2010,04,26,16,48,39.80
2010,04,26,16,49,30.20
2010,04,26,16,50,24.70
2010,04,26,16,51,30.50
2010,04,26,16,52,34.10
2010,04,26,16,53,32.40
2010,04,26,16,54,31.30
2010,04,26,16,55,36.50
2010,04,26,16,56,37.20
2010,04,26,16,57,26.70
2010,04,26,16,58,26.60
2010,04,26,16,59,33.90
2010,04,26,17,00,33.00
2010,04,26,17,01,22.40
2010,04,26,17,02,38.70
2010,04,26,17,03,41.80
2010,04,26,17,04,17.30
2010,04,26,17,05,26.20
2010,04,26,17,06,25.20
2010,04,26,17,07,40.30
2010,04,26,17,08,32.20
2010,04,26,17,09,24.20
2010,04,26,17,10,27.00
2010,04,26,17,11,18.70
2010,04,26,17,12,24.20
2010,04,26,17,13,30.70
2010,04,26,17,14,31.70
2010,04,26,17,15,30.80
2010,04,26,17,16,37.70
2010,04,26,17,17,17.50
2010,04,26,17,18,25.90
2010,04,26,17,19,24.70
2010,04,26,17,20,35.70
2010,04,26,17,21,19.00
2010,04,26,17,22,31.10
2010,04,26,17,23,27.20
2010,04,26,17,24,27.00
2010,04,26,17,25,28.60
2010,04,26,17,26,22.90
2010,04,26,17,27,21.30
2010,04,26,17,28,27.40
2010,04,26,17,29,28.30
2010,04,26,17,30,33.20
2010,04,26,17,31,27.50
2010,04,26,17,32,24.10
2010,04,26,17,33,21.00
2010,04,26,17,34,29.40
2010,04,26,17,35,27.90
2010,04,26,17,36,18.70
2010,04,26,17,37,24.20
2010,04,26,17,38,20.80
2010,04,26,17,39,25.20
2010,04,26,17,40,23.50
2010,04,26,17,41,16.20
2010,04,26,17,42,26.20
2010,04,26,17,43,26.20
2010,04,26,17,44,17.70
2010,04,26,17,45,17.90
2010,04,26,17,46,26.10
2010,04,26,17,47,24.40
2010,04,26,17,48,24.10
2010,04,26,17,49,18.40
2010,04,26,17,50,20.70
2010,04,26,17,51,19.10
2010,04,26,17,52,24.60
2010,04,26,17,53,14.30
2010,04,26,17,54,27.40
2010,04,26,17,55,12.70